Temperature
18 18 18 18 18 18 18 19 19 19 19 19 19 19 18 19 19 18 18 18 18 18 18 18 18 18 18 18 18 18 18 18 17 17 17 17 17 17 17 17 17 17 17
18 18 18 18 18 18 18 18 18 19 19 19 18 18 18 19 19 18 18 18 18 18 18 18 18 18 18 18 18 18 18 18 17 17 17 17 17 17 17 17 17 17 17
19 19 19 18 18 18 18 18 18 18 19 18 18 18 18 18 18 18 18 18 18 18 18 18 18 18 18 18 18 18 18 17 17 17 17 17 17 17 17 17 17 17 17
19 19 19 19 19 19 19 19 19 19 18 18 18 18 18 18 18 18 18 18 18 18 18 18 18 18 18 18 18 18 17 17 17 17 17 17 17 17 17 17 17 17 17
19 19 19 19 19 19 19 19 19 18 18 18 18 18 18 18 18 18 18 18 18 18 18 18 18 18 18 18 18 17 17 17 17 17 17 17 17 17 17 17 17 17 17
19 19 19 19 19 19 19 19 19 18 18 18 18 18 18 18 18 18 18 18 18 18 18 18 18 18 18 18 17 17 17 17 17 17 17 17 17 17 17 17 17 17 17
20 19 19 19 19 19 19 19 19 18 18 18 18 18 18 18 18 18 18 18 18 18 18 18 18 18 18 18 17 17 17 17 17 17 17 17 17 17 17 17 17 17 17
20 19 19 19 19 19 19 19 19 18 18 18 18 18 18 18 18 18 18 18 18 18 18 18 18 18 18 18 17 17 17 17 17 17 17 17 17 17 17 17 17 17 17
20 20 19 19 19 19 19 19 19 19 18 18 18 18 18 18 18 18 18 18 18 18 18 18 18 18 18 18 17 17 17 17 17 17 17 17 17 17 18 18 17 17 17
20 20 19 19 19 19 19 19 19 19 18 18 18 18 18 18 18 18 18 18 18 18 18 18 18 18 18 18 18 17 17 17 17 17 17 17 17 18 18 18 18 17 17
19 19 19 19 19 19 19 19 19 19 18 18 18 18 18 18 18 18 18 18 18 18 18 18 18 18 18 18 18 17 17 17 17 17 17 17 17 18 18 18 18 17 17
19 19 19 19 19 19 19 19 19 18 18 18 18 18 18 18 18 18 18 18 18 18 18 18 18 18 18 18 18 17 17 17 17 18 18 17 17 18 18 18 18 18 17
20 20 19 19 19 19 19 19 18 18 18 18 18 18 18 18 18 18 18 18 18 18 18 18 18 18 18 18 18 18 18 17 18 18 18 17 18 18 18 18 18 18 17
20 20 19 19 19 19 19 19 19 19 18 18 18 18 18 18 18 18 18 18 18 18 18 18 18 18 18 18 18 18 17 18 18 18 18 18 18 18 18 18 18 18 18
20 20 20 19 19 19 19 19 19 19 19 18 18 18 18 18 18 18 18 18 18 18 18 18 18 18 18 18 18 18 18 18 18 18 18 18 18 18 18 18 18 18 18
21 20 20 20 19 19 19 19 19 19 19 18 18 18 18 18 18 18 18 18 18 18 18 18 18 18 18 18 18 18 18 17 18 18 18 18 18 18 18 18 18 18 18
21 21 20 20 20 19 19 19 19 19 19 19 18 18 18 18 18 18 18 18 18 18 18 18 18 18 18 18 18 18 18 18 18 18 18 18 18 18 18 18 18 18 18
21 21 21 20 20 20 19 19 19 19 19 19 18 18 18 18 18 18 18 18 18 18 18 18 18 17 18 18 18 18 18 18 18 18 18 18 18 18 18 18 18 18 18
22 21 21 21 20 20 20 19 19 19 19 19 19 18 18 18 18 18 18 18 18 18 18 18 17 18 18 18 18 18 18 18 18 18 18 18 18 18 18 18 18 18 18
22 22 21 21 20 20 20 19 19 19 19 19 19 19 19 18 18 18 18 18 18 18 18 18 18 18 18 18 18 18 18 18 18 18 18 18 18 18 18 18 18 18 18
22 22 22 21 21 20 20 20 19 19 19 19 19 19 19 19 18 18 18 18 18 18 18 18 18 18 18 18 18 18 18 18 18 18 18 18 18 18 18 18 18 18 18
23 22 22 21 21 21 20 20 20 20 19 19 19 19 19 19 19 19 18 18 18 18 18 18 18 18 18 18 17 17 18 18 18 19 18 18 18 18 18 18 18 18 18
23 23 22 22 22 21 21 20 20 19 19 19 19 19 19 19 19 19 19 19 18 18 18 18 18 18 18 18 17 17 17 18 18 19 19 18 18 18 18 18 18 18 18
24 23 23 22 22 21 21 20 20 20 20 20 20 19 19 19 19 19 19 19 19 18 18 18 18 18 18 18 18 17 17 17 17 18 18 18 18 18 18 18 18 18 18
24 24 23 23 22 22 21 21 21 20 20 20 20 19 19 19 19 19 19 19 19 19 18 18 18 18 18 18 18 17 17 17 17 17 17 18 18 18 18 18 18 18 17
24 24 23 23 22 22 22 21 21 21 20 20 20 20 19 19 19 19 19 19 19 19 19 18 18 18 18 18 18 17 17 17 17 17 17 17 17 18 18 18 17 17 17
Wind_Speed
3 6 12 14 15 16 16 17 17 18 19 19 19 20 20 20 19 19 18 18 17 16 16 15 15 15 15 15 15 15 16 16 16 17 17 16 16 16 16 16 15 14 15
7 10 13 15 16 16 16 16 17 17 18 18 18 18 18 18 18 17 17 16 15 15 15 14 14 14 14 14 14 14 15 14 14 15 15 15 15 14 14 15 14 13 14
10 11 13 15 16 16 15 16 16 16 17 17 17 17 17 16 16 16 15 15 14 14 14 13 13 13 14 13 13 13 13 13 13 13 13 12 13 13 14 15 14 14 13
11 12 14 15 15 15 15 15 15 15 15 16 16 15 15 15 15 14 14 14 13 13 13 12 12 12 12 12 12 12 12 11 11 11 10 10 11 13 14 14 13 13 13
10 12 15 16 15 15 14 15 15 14 14 14 14 14 14 14 13 13 13 12 12 12 11 11 11 11 10 10 10 10 9 8 8 8 8 8 10 13 13 13 13 12 12
9 12 15 17 16 15 14 14 14 14 14 14 13 13 13 13 12 12 12 11 11 11 11 10 10 10 10 9 9 8 7 6 6 6 7 10 11 13 13 12 12 12 12
10 11 14 17 16 15 14 14 14 13 13 13 13 12 12 11 11 11 11 10 10 10 9 9 9 9 9 8 7 6 5 5 6 6 8 11 12 13 13 12 12 11 11
13 11 14 16 15 15 14 14 13 13 12 12 12 12 11 11 10 10 10 10 10 9 9 9 8 8 7 6 5 4 4 5 5 6 8 11 12 13 12 12 12 12 11
12 10 10 13 14 14 14 14 13 12 12 12 11 11 11 11 10 10 9 9 9 9 9 9 8 7 6 5 4 3 3 4 6 6 8 11 13 13 13 13 12 12 12
10 9 8 10 11 11 12 13 13 12 12 11 11 10 10 10 10 9 9 9 9 9 9 8 8 7 6 5 4 3 3 4 5 6 7 11 14 14 14 13 13 12 12
10 8 8 8 9 11 11 12 12 12 11 11 10 10 9 7 7 7 8 9 9 9 8 8 7 7 6 5 5 5 3 3 5 5 8 11 15 15 14 14 13 12 12
12 11 9 9 9 10 10 10 10 9 9 9 8 8 7 7 7 7 8 9 9 9 9 8 7 7 5 4 5 5 4 5 4 6 9 12 15 15 15 14 14 13 13
13 12 11 10 9 9 7 9 7 7 8 8 8 8 7 6 6 6 6 7 8 8 7 6 6 5 5 5 5 4 5 6 5 7 10 14 15 16 16 15 15 14 14
11 11 10 10 9 8 8 7 7 6 6 6 8 9 7 4 4 5 4 5 5 5 5 5 5 6 6 6 6 5 6 6 8 9 12 16 17 17 17 16 16 15 15
11 11 11 10 10 8 7 6 7 6 7 8 8 9 8 5 4 3 4 5 5 6 5 5 5 5 4 5 6 5 5 7 8 10 11 16 18 18 17 16 16 16 16
11 11 10 10 9 8 6 5 6 7 7 8 7 8 10 7 5 4 3 3 4 6 6 6 5 4 3 3 4 4 5 7 8 9 11 14 18 18 18 17 17 17 16
12 11 10 10 9 8 7 6 6 7 8 6 7 9 10 9 7 5 4 3 4 6 5 4 3 3 3 3 4 4 4 6 7 9 10 12 14 17 18 18 17 17 17
13 11 11 11 9 8 7 5 4 6 6 6 8 9 10 10 9 6 4 3 5 4 3 2 2 2 3 3 3 4 4 4 6 8 9 11 12 12 15 18 18 18 18
14 13 11 9 10 9 7 5 4 4 5 6 8 8 10 10 10 6 4 4 5 3 2 3 2 3 3 3 4 4 4 4 4 6 7 10 12 13 13 15 19 20 20
14 13 11 10 10 8 6 4 2 2 3 4 6 8 10 9 10 7 5 5 4 3 3 2 2 2 3 3 4 4 4 4 4 5 6 7 10 12 13 14 15 17 21
12 12 12 11 10 7 5 4 4 4 3 3 5 8 10 10 10 7 4 4 4 4 4 4 3 2 2 1 0 3 4 3 4 5 5 5 6 9 10 12 12 13 14
14 13 12 11 11 9 7 5 4 4 4 4 4 6 9 10 10 8 6 5 5 4 4 4 3 2 2 1 2 0 3 4 3 3 3 4 4 4 5 8 9 12 12
15 15 14 12 11 10 8 4 3 2 1 1 3 4 5 8 9 7 6 5 5 5 4 4 4 4 3 2 2 3 2 3 3 3 2 2 2 2 3 4 7 9 11
17 15 13 13 11 10 9 7 7 6 5 5 4 4 4 6 7 7 7 6 6 5 5 5 4 4 4 3 2 2 3 3 1 3 3 2 2 3 3 4 4 5 8
16 14 13 12 11 10 10 10 8 6 5 3 3 4 4 4 5 6 6 6 6 5 5 5 4 4 4 4 3 2 1 1 2 2 3 4 3 3 3 3 2 3 4
13 12 12 12 11 11 11 10 9 8 7 5 5 5 4 3 4 5 5 5 6 5 5 5 5 5 4 4 3 3 3 2 3 3 3 3 3 3 3 1 1 2 3
Wind_Direction
142 139 122 118 116 114 110 107 106 105 105 104 104 106 108 110 112 113 115 115 115 115 114 114 113 114 115 117 117 118 117 116 116 116 117 118 117 116 116 116 113 112 114
149 136 122 120 119 116 113 110 110 109 108 110 111 111 112 113 114 116 117 117 117 117 117 117 118 118 119 120 121 121 120 119 119 118 119 119 119 120 121 121 119 121 120
136 133 124 120 120 118 117 113 112 111 111 113 114 115 116 116 118 120 119 119 120 120 121 121 121 123 125 125 125 124 123 122 122 120 117 115 119 121 124 126 124 123 123
137 134 129 126 123 120 119 118 117 115 115 117 117 118 118 119 121 123 123 122 123 124 125 125 126 127 129 129 129 129 128 128 127 124 122 124 125 126 127 127 128 128 126
134 137 135 131 127 126 124 121 120 120 119 120 122 123 123 124 125 127 127 126 127 128 130 131 132 135 135 135 134 132 132 133 135 132 132 137 136 137 134 133 133 133 132
137 140 140 136 132 131 129 126 125 125 124 124 126 129 129 131 132 132 133 132 132 133 135 136 138 140 140 139 137 135 134 137 137 133 135 145 147 146 142 140 140 139 137
141 143 142 138 135 134 132 130 129 129 129 131 132 132 133 134 137 138 138 138 140 140 142 144 145 145 144 144 143 144 139 142 145 145 146 150 154 153 149 146 144 145 144
145 146 145 144 141 139 138 136 135 135 136 136 135 137 138 140 143 145 146 146 147 147 150 153 153 153 151 153 157 158 151 150 142 142 149 157 159 157 155 154 152 151 150
146 147 149 150 148 147 145 143 142 142 143 144 143 144 146 147 149 152 156 156 157 158 160 160 163 164 166 173 179 177 163 156 143 150 159 162 166 165 161 160 161 162 161
150 153 155 153 153 153 152 151 149 149 151 153 152 152 153 155 159 161 163 168 169 169 169 170 171 177 186 192 206 222 210 166 156 171 168 172 175 173 170 169 170 171 170
158 161 163 161 161 161 160 159 157 157 160 160 162 164 162 163 166 171 174 175 179 179 180 182 184 189 199 210 225 241 237 191 171 180 180 184 182 181 177 176 177 177 178
169 174 173 170 170 168 168 162 165 164 167 170 174 175 174 180 184 184 184 185 187 188 190 194 195 202 215 229 244 249 229 203 190 186 189 191 188 188 185 184 185 186 186
171 174 176 175 174 173 168 165 170 172 175 183 186 185 185 190 192 186 188 196 195 196 198 204 209 214 223 233 238 238 220 211 206 198 195 200 197 195 192 191 192 194 193
167 170 171 172 172 173 167 169 175 176 185 192 194 188 179 177 175 176 182 195 195 195 196 206 214 225 232 238 234 232 223 211 209 204 199 203 202 200 198 198 199 201 201
162 163 166 168 168 169 164 175 178 184 188 192 190 187 178 170 172 173 184 195 202 202 201 207 217 221 225 237 239 229 219 216 214 203 203 205 204 204 204 203 204 206 207
162 162 164 162 163 161 166 173 176 184 185 182 188 187 181 178 177 171 180 192 204 204 202 202 212 219 226 226 244 235 223 222 218 207 207 208 208 209 210 209 209 210 213
162 161 162 162 161 161 168 176 174 182 182 183 191 191 188 185 182 177 177 194 208 206 201 201 218 223 230 235 249 251 236 224 214 211 207 208 213 216 216 216 215 216 219
161 161 168 168 166 169 172 178 175 180 182 186 190 194 194 192 185 173 175 198 207 204 195 197 204 217 240 244 253 261 250 233 221 215 208 210 211 217 221 222 222 222 223
166 166 170 167 172 178 178 181 182 180 184 188 188 192 196 197 191 180 184 199 199 195 205 214 203 202 230 249 252 254 254 249 239 223 211 212 211 215 220 228 229 228 228
169 169 170 170 178 179 174 169 178 186 193 191 192 198 201 202 199 187 190 199 190 188 209 213 215 216 225 240 264 278 268 251 239 230 226 220 215 217 222 228 231 234 233
170 171 172 172 179 173 171 172 180 201 207 202 205 206 202 202 199 190 195 191 189 196 213 212 203 217 238 221 327 316 307 281 253 240 234 231 226 222 220 223 227 230 235
176 177 176 177 179 181 183 180 181 186 204 207 209 206 203 197 197 197 190 193 192 195 215 215 200 199 242 184 158 21 325 331 317 269 247 233 240 232 229 229 227 230 231
181 182 183 184 183 185 180 167 166 150 184 199 215 213 212 201 199 201 196 193 195 190 205 211 199 193 222 238 186 164 179 256 299 312 296 255 237 234 242 237 231 232 228
188 185 182 182 183 184 176 173 174 184 197 208 204 207 212 203 201 205 201 194 193 192 200 211 199 193 188 221 242 216 197 185 212 308 320 316 273 244 249 255 243 230 230
187 184 182 181 184 183 181 183 185 195 203 203 196 202 209 208 205 206 201 196 197 199 201 203 193 192 189 195 201 210 225 219 201 208 281 307 313 272 253 245 237 226 207
180 179 180 182 188 186 185 186 190 195 195 191 200 201 204 208 217 215 202 198 199 198 198 197 193 194 200 197 194 192 192 201 214 203 236 270 284 285 283 258 222 211 174
Height
1524 1524 1524 1524 1525 1525 1526 1527 1528 1529 1530 1531 1533 1534 1535 1536 1537 1538 1540 1541 1542 1543 1544 1545 1546 1547 1548 1549 1550 1551 1551 1552 1553 1553 1554 1554 1555 1555 1555 1556 1556 1557 1557
1524 1525 1525 1525 1526 1527 1528 1529 1530 1531 1532 1533 1535 1536 1537 1538 1539 1540 1541 1542 1544 1544 1546 1547 1548 1549 1550 1550 1551 1552 1552 1553 1554 1555 1555 1556 1556 1557 1557 1557 1558 1558 1559
1525 1526 1527 1527 1528 1529 1530 1531 1532 1533 1534 1535 1536 1537 1538 1540 1541 1542 1543 1544 1545 1546 1547 1548 1549 1550 1550 1551 1552 1553 1554 1554 1555 1556 1557 1557 1558 1558 1558 1559 1559 1560 1560
1526 1527 1528 1529 1530 1531 1531 1532 1534 1535 1536 1537 1538 1539 1540 1541 1542 1543 1544 1545 1546 1547 1548 1549 1549 1550 1551 1552 1553 1554 1555 1555 1556 1557 1558 1558 1558 1559 1559 1560 1560 1561 1561
1528 1529 1530 1531 1531 1533 1533 1534 1535 1536 1537 1538 1539 1540 1541 1542 1543 1544 1545 1546 1547 1548 1549 1549 1550 1551 1552 1553 1554 1555 1556 1556 1557 1558 1558 1559 1559 1560 1560 1561 1561 1562 1562
1529 1530 1531 1532 1533 1534 1535 1536 1537 1538 1539 1540 1540 1541 1542 1543 1544 1545 1546 1547 1548 1549 1549 1550 1551 1552 1553 1554 1555 1556 1557 1557 1558 1558 1559 1559 1560 1561 1561 1562 1562 1563 1563
1530 1531 1533 1534 1534 1535 1536 1537 1538 1539 1540 1541 1541 1542 1543 1544 1545 1546 1547 1548 1549 1549 1550 1551 1552 1553 1554 1555 1555 1557 1557 1558 1558 1559 1559 1560 1561 1561 1562 1562 1563 1563 1564
1531 1532 1534 1535 1536 1536 1537 1538 1539 1540 1541 1541 1542 1543 1544 1545 1546 1547 1548 1549 1549 1550 1551 1552 1553 1553 1554 1555 1556 1557 1558 1559 1559 1559 1560 1560 1561 1562 1562 1563 1563 1564 1565
1532 1533 1535 1536 1537 1538 1538 1539 1540 1540 1541 1542 1543 1544 1545 1546 1546 1547 1548 1549 1550 1550 1551 1552 1553 1554 1555 1556 1557 1558 1558 1559 1559 1560 1560 1561 1562 1562 1563 1563 1564 1564 1565
1534 1535 1536 1537 1538 1538 1539 1540 1541 1542 1542 1543 1544 1544 1545 1546 1547 1548 1549 1549 1550 1551 1552 1552 1553 1554 1555 1556 1557 1558 1559 1559 1560 1560 1561 1561 1562 1562 1563 1563 1564 1564 1565
1534 1535 1536 1537 1538 1539 1540 1541 1542 1542 1543 1544 1544 1545 1546 1547 1547 1548 1549 1549 1550 1551 1552 1553 1554 1555 1556 1557 1558 1558 1559 1559 1560 1560 1561 1561 1562 1562 1562 1563 1563 1564 1565
1533 1535 1536 1538 1539 1540 1541 1542 1542 1543 1544 1544 1545 1546 1547 1547 1548 1548 1549 1549 1550 1551 1552 1553 1554 1555 1556 1557 1557 1558 1558 1559 1560 1560 1560 1561 1561 1562 1562 1562 1563 1563 1564
1533 1534 1536 1537 1539 1540 1541 1542 1543 1543 1544 1545 1545 1546 1547 1547 1548 1548 1549 1549 1550 1551 1552 1553 1554 1555 1556 1556 1557 1558 1558 1559 1559 1559 1560 1560 1561 1561 1561 1562 1562 1563 1563
1532 1534 1535 1537 1538 1539 1541 1542 1543 1543 1544 1545 1546 1547 1547 1548 1548 1548 1549 1550 1550 1551 1552 1553 1553 1554 1555 1556 1557 1558 1558 1558 1559 1559 1559 1559 1560 1560 1560 1561 1561 1562 1562
1532 1533 1535 1536 1538 1539 1540 1541 1542 1543 1544 1545 1546 1546 1547 1548 1548 1548 1549 1549 1550 1551 1552 1553 1553 1554 1555 1555 1556 1557 1557 1558 1558 1558 1558 1559 1559 1559 1560 1560 1560 1560 1561
1531 1533 1534 1536 1537 1539 1540 1541 1542 1543 1544 1545 1545 1546 1547 1548 1548 1548 1549 1549 1550 1550 1551 1552 1553 1553 1554 1555 1555 1556 1556 1556 1557 1557 1557 1557 1558 1558 1558 1559 1559 1559 1560
1530 1532 1534 1535 1537 1538 1539 1540 1541 1542 1543 1544 1545 1546 1547 1547 1548 1548 1548 1549 1549 1550 1551 1552 1552 1553 1553 1554 1554 1554 1555 1555 1555 1555 1556 1556 1556 1557 1557 1557 1557 1558 1558
1529 1531 1533 1535 1536 1538 1539 1540 1541 1542 1543 1544 1545 1545 1546 1547 1547 1548 1548 1549 1549 1550 1550 1551 1551 1552 1552 1552 1553 1553 1553 1553 1554 1554 1554 1554 1554 1555 1555 1555 1556 1556 1556
1528 1530 1532 1534 1535 1537 1538 1539 1540 1541 1542 1543 1544 1544 1545 1546 1546 1547 1547 1548 1548 1549 1549 1550 1550 1551 1551 1551 1551 1551 1551 1551 1552 1552 1552 1552 1552 1552 1553 1553 1554 1554 1554
1526 1529 1530 1532 1534 1536 1537 1538 1540 1540 1541 1542 1543 1543 1544 1545 1545 1546 1547 1547 1547 1548 1548 1549 1549 1549 1549 1549 1549 1549 1549 1549 1549 1549 1549 1549 1550 1550 1550 1550 1551 1551 1551
1525 1527 1528 1530 1532 1534 1535 1536 1538 1539 1540 1541 1541 1542 1543 1543 1544 1544 1545 1546 1546 1547 1547 1547 1547 1548 1548 1548 1548 1547 1547 1547 1546 1546 1547 1547 1547 1547 1547 1547 1548 1548 1548
1522 1524 1526 1528 1530 1532 1533 1535 1536 1538 1538 1539 1540 1540 1541 1542 1542 1543 1543 1544 1545 1545 1545 1546 1546 1546 1546 1546 1546 1545 1545 1545 1544 1544 1544 1544 1544 1544 1545 1545 1544 1544 1545
1519 1521 1524 1526 1528 1530 1532 1534 1535 1536 1537 1537 1538 1538 1539 1540 1540 1541 1542 1542 1543 1543 1544 1544 1544 1544 1544 1545 1545 1545 1544 1543 1543 1542 1542 1542 1542 1542 1542 1541 1541 1541 1541
1515 1518 1521 1524 1526 1528 1530 1531 1532 1533 1533 1534 1535 1536 1537 1538 1538 1539 1540 1540 1541 1541 1542 1542 1542 1542 1543 1542 1543 1543 1543 1543 1542 1540 1540 1540 1539 1539 1539 1539 1538 1538 1538
1512 1516 1519 1521 1524 1526 1528 1529 1530 1531 1532 1533 1533 1534 1535 1536 1536 1537 1538 1538 1539 1539 1540 1540 1540 1540 1540 1540 1540 1540 1540 1540 1540 1540 1538 1537 1537 1536 1536 1536 1536 1536 1535
1510 1513 1516 1519 1521 1523 1525 1526 1528 1529 1530 1530 1530 1531 1532 1533 1534 1535 1535 1536 1536 1537 1537 1537 1538 1538 1538 1538 1538 1538 1538 1538 1537 1537 1536 1535 1534 1534 1534 1533 1533 1533 1532